[[{"header":{"parameterUnit":"m.s-1","parameterCategory":1,"la1":30.2992,"la2":30.254,"lo1":-89.0895,"lo2":-89.0443,"dy":0.0025,"dx":0.0025,"nx":19,"ny":19,"refTime":"2026-05-10T21:00:00:Z","depth":0,"parameterNumber":2,"parameterNumberName":"U-component_of_WINDS"},"data":[0,0,0,0.7113,0.7114,0.7158,0.7159,0.7201,0.7202,0,0,0,0,0,0,0,0,0,0,0,0.7092,0.7092,0.7113,0.7114,0.7158,0.7159,0.7201,0.7202,0,0,0,0,0,0,0,0,0,0,0,0.7092,0.7092,0.7092,0.7114,0.7158,0.7159,0.7201,0.7172,0,0,0,0,0,0,0,0,0,0,0.7132,0.7105,0.7092,0.7092,0.7114,0.7158,0.7159,0.7171,0.7174,0.7175,0,0.7175,0,0.7189,0.7204,0.7204,0,0,0,0.712,0.7102,0.7121,0.7092,0.7115,0.7158,0.714,0.7173,0.7176,0.7179,0.7175,0.7177,0.7189,0.7204,0.7204,0.7192,0.7191,0,0,0.7117,0.7095,0.7119,0.7123,0.7116,0.7138,0.7141,0.7175,0.717,0.7176,0.7179,0.719,0.7204,0.7204,0.7192,0.7192,0,0,0,0.7106,0.7093,0.7112,0.7121,0.713,0.714,0.7143,0.7168,0.7176,0.7179,0.7191,0.7204,0.7204,0.7192,0.7192,0.7154,0,0,0,0.7105,0.7087,0.7111,0.7098,0.7129,0.715,0.7135,0.7174,0.7178,0.719,0.7204,0.7205,0.7193,0.7192,0.7156,0.7139,0,0,0,0.7092,0.7086,0.709,0.7097,0.7115,0.715,0.716,0.7175,0.7185,0.7204,0.7205,0.7193,0.7192,0.7158,0.7142,0.7128,0,0,0,0.7071,0.7056,0.7089,0.7076,0.7115,0.7127,0.716,0.717,0.7182,0.7204,0.7193,0.7192,0.7158,0.7144,0.713,0.7111,0.7102,0,0,0.7039,0.7051,0.7045,0.7076,0.7077,0.7122,0.7117,0.7148,0.7169,0.7183,0.7183,0.7155,0.7142,0.7128,0.7062,0.7055,0,0,0,0.7028,0.7023,0.7028,0.7038,0.7062,0.7081,0.7115,0.7126,0.7139,0.7172,0.7149,0.7141,0.7134,0.7126,0.712,0.7114,0.7188,0.7188,0.7188,0.695,0.6979,0.6971,0.7005,0.7015,0.705,0.706,0.7082,0.7108,0.7102,0.7105,0.7062,0.7052,0.7047,0.7041,0.71,0.71,0.71,0.71,0.6905,0.6902,0.6938,0.6942,0.6973,0.6977,0.7011,0.7029,0.7036,0.7062,0.7057,0.708,0.7038,0.7034,0.7097,0.7098,0.7098,0.7098,0.7098,0.6855,0.6859,0.6874,0.6891,0.6902,0.6937,0.6943,0.6971,0.6997,0.6992,0.6998,0.6999,0.7001,0.6994,0.6994,0.6993,0.6993,0.6993,0.6993,0.6797,0.6815,0.6817,0.6841,0.6851,0.6868,0.6904,0.6914,0.6933,0.6952,0.6953,0.6978,0.703,0.7041,0.6991,0.6991,0.6991,0.6992,0.6992,0.6736,0.6754,0.6756,0.6766,0.6797,0.6804,0.6841,0.686,0.6873,0.6874,0.6901,0.6936,0.6949,0.6954,0.6963,0.6896,0.6896,0.6896,0.6896,0.6692,0.6703,0.671,0.6725,0.6742,0.6775,0.6775,0.6803,0.6835,0.6844,0.6859,0.6874,0.6878,0.6889,0.6896,0.6904,0.6824,0.6824,0.6824,0.6655,0.6669,0.6663,0.6695,0.6721,0.6743,0.6743,0.6757,0.6797,0.6821,0.6852,0.6855,0.688,0.6887,0.6909,0.6919,0.6936,0,0]},{"header":{"parameterUnit":"m.s-1","parameterCategory":1,"la1":30.2992,"la2":30.254,"lo1":-89.0895,"lo2":-89.0443,"dy":0.0025,"dx":0.0025,"nx":19,"ny":19,"refTime":"2026-05-10T21:00:00:Z","depth":0,"parameterNumber":3,"parameterNumberName":"V-component_of_WINDS"},"data":[0,0,0,-2.394,-2.3941,-2.3973,-2.3973,-2.4025,-2.4026,0,0,0,0,0,0,0,0,0,0,0,-2.3937,-2.3938,-2.394,-2.3941,-2.3973,-2.3973,-2.4025,-2.4026,0,0,0,0,0,0,0,0,0,0,0,-2.3937,-2.3938,-2.3938,-2.3941,-2.3973,-2.3973,-2.4025,-2.3997,0,0,0,0,0,0,0,0,0,0,-2.3963,-2.3968,-2.3937,-2.3938,-2.3941,-2.3973,-2.3973,-2.3995,-2.3999,-2.4016,0,-2.4033,0,-2.403,-2.403,-2.403,0,0,0,-2.3936,-2.3965,-2.3968,-2.3939,-2.3942,-2.3973,-2.3957,-2.3997,-2.4001,-2.402,-2.4033,-2.4035,-2.4031,-2.4031,-2.4031,-2.4148,-2.4148,0,0,-2.3934,-2.3947,-2.3965,-2.397,-2.3967,-2.3956,-2.3958,-2.3999,-2.4014,-2.4033,-2.4036,-2.4032,-2.4031,-2.4032,-2.4147,-2.4148,0,0,0,-2.3932,-2.3946,-2.3947,-2.3969,-2.3974,-2.3957,-2.396,-2.4012,-2.4012,-2.4036,-2.4033,-2.4031,-2.4032,-2.4146,-2.4147,-2.42,0,0,0,-2.3931,-2.3945,-2.3946,-2.3955,-2.3973,-2.3994,-2.3972,-2.4009,-2.4013,-2.4032,-2.4031,-2.4033,-2.4145,-2.4147,-2.4197,-2.4223,0,0,0,-2.3933,-2.3945,-2.3952,-2.3955,-2.397,-2.3993,-2.3994,-2.401,-2.4011,-2.403,-2.4033,-2.4144,-2.4146,-2.4194,-2.4218,-2.4259,0,0,0,-2.3938,-2.3997,-2.3953,-2.4017,-2.397,-2.4025,-2.3994,-2.4034,-2.4057,-2.4032,-2.4145,-2.4147,-2.4193,-2.4215,-2.4255,-2.4296,-2.4314,0,0,-2.402,-2.4008,-2.4045,-2.4006,-2.4073,-2.4019,-2.4093,-2.4101,-2.4091,-2.4129,-2.4132,-2.4198,-2.4218,-2.4258,-2.4406,-2.4421,0,0,0,-2.4075,-2.4102,-2.4117,-2.4139,-2.4148,-2.4157,-2.4152,-2.4155,-2.4187,-2.4113,-2.4222,-2.4234,-2.4257,-2.4276,-2.4288,-2.4307,-2.4156,-2.4156,-2.4156,-2.421,-2.4194,-2.4254,-2.4243,-2.4265,-2.426,-2.4277,-2.428,-2.4257,-2.4283,-2.4294,-2.4387,-2.4409,-2.4418,-2.4439,-2.4313,-2.4313,-2.4314,-2.4314,-2.4329,-2.4366,-2.4334,-2.4381,-2.4364,-2.4403,-2.4401,-2.4383,-2.4418,-2.4376,-2.4396,-2.4353,-2.4434,-2.4451,-2.4318,-2.4317,-2.4316,-2.4316,-2.4316,-2.4417,-2.4432,-2.4435,-2.4466,-2.4492,-2.4478,-2.4513,-2.4495,-2.4479,-2.4498,-2.4509,-2.4508,-2.4506,-2.4504,-2.4505,-2.4505,-2.4505,-2.4505,-2.4506,-2.4507,-2.4509,-2.4541,-2.4555,-2.4568,-2.4582,-2.4578,-2.4589,-2.4598,-2.4583,-2.4583,-2.4558,-2.4445,-2.4417,-2.4511,-2.451,-2.4509,-2.4509,-2.4508,-2.4637,-2.4605,-2.4654,-2.4667,-2.4682,-2.471,-2.4687,-2.4713,-2.472,-2.4738,-2.4708,-2.4627,-2.4613,-2.4603,-2.4581,-2.4711,-2.4711,-2.4711,-2.4711,-2.4712,-2.4703,-2.475,-2.4772,-2.4791,-2.4775,-2.4832,-2.4829,-2.4821,-2.4825,-2.4803,-2.4771,-2.4762,-2.4754,-2.4741,-2.4719,-2.4882,-2.4882,-2.4882,-2.4791,-2.4784,-2.4836,-2.4828,-2.4838,-2.4848,-2.4901,-2.4928,-2.4911,-2.4889,-2.4828,-2.482,-2.4769,-2.4752,-2.4729,-2.471,-2.467,0,0]}]]